BEIDOU-3 M11 (C25)

Last updated on Sun Apr 12 2026 00:03:31 GMT+0000 (Coordinated Universal Time)

1 43603U 18067B 26100.92405117 -.00000003 00000+0 00000+0 0 9998 2 43603 54.1767 183.2852 0004595 25.2166 334.8517 1.86227381 51894
UTC large
Height (km)
Speed (km/s)
/
Latitude / Longitude
Inclination (degrees)
Orbital Period (minutes)
Azimuth
Elevation
Range (km)
Doppler Factor

Next 0 passes for location: London (51.5072 / 0.1276)

Sorry there are no passes over London.